Location: Bojk�w
(50.2538°N, 18.6936°E)
Time: 02:20:00
(UTC+00:00)

Daily predictions for brighter satellites

Satellite Brightness Start Highest point End
(mag) Time Altitude Azimuth Time Altitude Azimuth Time Altitude Azimuth
ATLAS 3B R/B 4.2 01:43:18 30° NE 01:43:18 30° NE 01:47:44 10° E
CENTAUR R/B 3.6 02:14:21 56° SE 02:14:21 56° SE 02:20:59 10° SE
ATLAS 2AS CENTAUR R/B 4.2 02:27:56 18° SSE 02:32:57 36° ESE 02:39:57 10° NE
Cosmos 2297 Rocket 4.3 02:48:42 16° N 02:48:42 16° N 02:49:58 10° NNE
Lacrosse 5 3.4 02:52:48 30° SE 02:52:52 30° SE 02:57:15 10° ENE
ATLAS CENTAUR R/B 3.8 02:55:54 19° E 02:55:54 19° E 02:57:22 10° E
Cosmos 2263 Rocket 2.5 03:01:26 65° ENE 03:01:26 65° ENE 03:06:33 10° NNE
SJ 16-02 2.6 03:08:47 40° E 03:08:47 40° E 03:12:37 10° NE
FENGYUN 3A 4.0 03:11:51 10° NNE 03:17:16 63° ESE 03:22:37 10° S
Cosmos 2181 Rocket 4.2 03:11:56 10° N 03:18:11 70° ENE 03:24:17 10° SSE
Cosmos 1766 Rocket 4.5 03:20:46 45° NE 03:20:46 45° NE 03:24:07 10° NNE
Cosmos 1709 Rocket 4.0 03:16:30 10° S 03:22:52 85° E 03:29:18 10° N
USA 307 3.9 03:28:58 42° NE 03:28:58 42° NE 03:32:13 10° ENE
CZ-4C R/B 3.4 03:25:49 13° S 03:29:48 37° ESE 03:35:10 10° NE
COSMO-SKYMED 1 3.2 03:25:35 10° SSE 03:29:49 55° ENE 03:30:47 44° NNE
BREEZE-M DEB (TANK) 4.1 03:30:34 51° W 03:32:13 66° SSW 03:36:03 10° ESE
Meteor 2-3 Rocket 3.9 03:26:47 10° S 03:32:29 71° E 03:38:16 10° NNE
ATLAS 3B R/B 2.7 03:30:35 45° NW 03:32:59 84° NE 03:40:11 10° SE
Cosmos 1943 4.3 03:36:00 30° SSW 03:36:00 30° SSW 03:39:07 10° S
USA 308 3.7 03:35:04 45° NNE 03:35:04 45° NNE 03:38:34 10° ENE
Lacrosse 4 Rocket 3.1 03:38:11 24° S 03:38:11 24° S 03:40:06 10° SSE
CZ-4B R/B 4.4 03:36:54 10° NNE 03:41:11 41° E 03:45:21 10° SSE
Cosmos 1689 Rocket 4.3 03:45:08 10° SSE 03:46:15 21° SE 03:46:15 21° SE
SAR-Lupe-4 4.4 03:45:52 10° SSE 03:48:19 42° SSE 03:48:19 42° SSE
ALOS 2.1 03:48:17 10° N 03:52:57 66° WNW 03:53:16 64° W
EXPRESS MD2 3.2 03:53:25 84° SW 03:53:29 84° S 03:59:18 10° E
SKYMED 3 4.4 03:49:28 10° SSE 03:53:48 88° WSW 03:55:05 46° NNW
Cosmos 923 Rocket 4.0 03:53:37 55° W 03:53:57 56° WSW 03:59:08 10° S
deb Chang Zheng 4 3.6 03:49:51 10° NNE 03:54:13 82° ESE 03:58:35 10° SSW
Cosmos 990 Rocket 4.4 03:50:17 10° S 03:55:27 63° ESE 04:00:40 10° NNE
Cosmos 2227 Rocket 4.0 03:57:13 16° NNW 03:57:13 16° NNW 03:59:34 10° N
METEOR-M 4.0 03:52:16 10° NNE 03:57:39 79° WNW 04:02:59 10° SSW
Cosmos 2344 4.3 03:53:01 25° NW 03:59:23 83° SW 04:12:17 10° SE
Cosmos 2227 4.4 04:01:36 45° WNW 04:02:17 47° NW 04:07:44 10° NNE
CENTAUR R/B 3.8 04:01:36 31° WSW 04:02:24 31° WSW 04:09:46 10° S
USA 305 3.2 04:02:46 48° NNW 04:03:18 51° N 04:07:31 10° E
NOSS 3-4 (A) 3.3 04:00:50 32° WSW 04:03:43 74° NW 04:10:12 10° NE
NOSS 3-4 (C) 3.3 04:00:54 32° WSW 04:03:51 75° NW 04:10:20 10° NE
ARGOS Delta rocket 4.1 03:58:59 10° N 04:03:59 49° WNW 04:04:43 45° W
Meteor 1-31 Rocket 2.8 04:01:49 10° N 04:05:08 58° NNW 04:05:08 58° NNW
SAR-Lupe-1 4.3 04:02:54 10° S 04:05:49 52° SSW 04:05:49 52° SSW
Cosmos 405 Rocket 4.2 04:04:52 10° SSE 04:08:17 37° E 04:11:47 10° NNE
Cosmos 2184 Rocket 4.2 04:03:58 10° S 04:10:16 76° E 04:16:40 10° NNE
Cosmos 158 Rocket 4.2 04:10:39 40° WSW 04:10:39 40° WSW 04:15:14 10° S
Cosmos 1812 3.2 04:07:44 14° N 04:10:56 58° ENE 04:14:43 10° SSE
Cosmos 2228 Rocket 3.5 04:06:35 10° N 04:11:00 61° ENE 04:15:20 10° SSE
USA 306 3.3 04:10:52 43° NW 04:11:46 52° N 04:15:59 10° E
Cosmos 1515 Rocket 3.5 04:09:36 28° NNW 04:11:55 69° W 04:16:21 10° S
Meteor 2-17 Rocket 4.3 04:08:34 10° SSW 04:14:36 74° WNW 04:20:42 10° N
SL-4 R/B 1.8 04:15:03 56° WNW 04:15:42 70° N 04:19:24 10° E
Cosmos 1782 3.0 04:16:34 46° WSW 04:16:34 46° WSW 04:20:16 10° SSW
PSLV R/B 3.8 04:13:10 10° S 04:17:17 68° WSW 04:19:23 28° NNW
SKYMED 2 3.7 04:13:41 10° S 04:17:55 52° W 04:19:24 35° NW
Cosmos 1844 Rocket 3.1 04:13:41 10° SSW 04:19:16 66° ESE 04:24:55 10° NNE
Cosmos 1680 Rocket 3.8 04:20:02 32° WNW 04:21:51 44° WSW 04:26:51 10° S
SJ-12 3.8 04:17:59 10° N 04:22:01 64° WNW 04:26:02 10° SSW
ATLAS 2AS CENTAUR R/B 3.0 04:15:34 10° SW 04:23:34 75° NW 04:31:23 10° NE
FALCON 9 DEB 3.2 04:24:39 39° SW 04:25:38 63° SSE 04:28:49 10° ENE
COSMOS 2455 4.4 04:20:23 10° S 04:25:54 38° ESE 04:31:26 10° NE
FALCON 9 DEB 3.4 04:26:37 44° NW 04:27:22 55° N 04:30:48 10° E
Cosmos 2297 Rocket 4.2 04:30:30 11° NNW 04:30:58 11° NNW 04:32:47 10° N
ATLAS 5 CENTAUR R/B 2.9 04:31:19 26° NNW 04:31:19 26° NNW 04:33:31 10° NNE
ADEOS 3.9 04:27:41 10° N 04:32:32 40° WNW 04:37:23 10° SW
Cosmos 1844 4.0 04:27:27 10° SSW 04:32:56 67° ESE 04:38:30 10° NNE
ATLAS CENTAUR R/B 1.5 04:32:06 37° W 04:33:00 44° SW 04:36:45 10° SSE
RESURS DK-1 2.2 04:29:17 10° SSW 04:33:26 83° WNW 04:37:38 10° NNE
Meteor PRIRODA 3.6 04:31:16 10° N 04:34:59 63° WNW 04:38:40 10° SSW
Lacrosse 5 1.8 04:32:02 21° WSW 04:35:30 77° NNW 04:40:36 10° ENE
Meteor 2-6 Rocket 4.1 04:31:19 10° NNW 04:36:40 65° W 04:42:02 10° S
Cosmos 1500 Rocket 3.4 04:33:13 10° SSW 04:37:32 78° W 04:41:54 10° N
ERBS 3.4 04:38:12 26° NNW 04:38:39 27° N 04:41:34 10° NE
H-2A R/B 2.7 04:34:58 10° NNE 04:38:55 89° ESE 04:42:48 10° SSW
Cosmos 1437 Rocket 2.7 04:36:57 10° N 04:40:45 79° ENE 04:44:31 10° SSE
Okean O Rocket 3.5 04:38:30 10° NNE 04:42:32 33° E 04:46:34 10° SSE
Gbstr 26 Del rocket 4.1 04:43:33 21° WSW 04:44:46 24° SW 04:47:59 10° SSE
SMAP 4.5 04:40:52 10° NNE 04:45:18 41° E 04:49:41 10° SSE
Cosmos 2263 Rocket 3.1 04:43:11 22° WNW 04:45:19 28° NW 04:50:12 10° NNE
SJ 16-02 2.3 04:45:52 24° W 04:47:10 27° NW 04:50:59 10° N
Nadezhda 3 Rocket 3.9 04:42:43 10° NNW 04:49:02 73° W 04:55:14 10° S
ATLAS 5 CENTAUR R/B 4.4 04:46:51 10° SSE 04:49:54 20° ESE 04:53:11 10° ENE
Cosmos 1898 Rocket 3.6 04:49:22 10° SW 04:54:35 55° WNW 04:59:52 10° NNE
CZ-2C R/B 3.1 04:50:15 10° SSE 04:55:39 66° ENE 05:00:59 10° N
Envisat 3.0 04:52:56 10° NNE 04:58:03 86° ESE 05:03:09 10° SSW
Sich 1 3.4 04:54:00 10° S 04:58:24 70° E 05:02:51 10° NNE
FALCON 9 DEB 2.8 04:56:36 18° WSW 04:58:52 88° NNW 05:02:07 10° ENE
FALCON 9 DEB 2.8 04:56:45 18° WSW 04:59:00 85° NNW 05:02:14 10° ENE
SJ-7 4.3 04:55:30 10° N 04:59:32 70° WNW 05:03:37 10° SSW
H-2A R/B 2.3 04:57:39 10° NNE 05:01:33 81° ESE 05:05:22 10° SSW
Cosmos 1743 Rocket 3.8 04:57:17 10° SSW 05:01:34 46° WNW 05:05:55 10° N
Cosmos 2082 Rocket 3.4 04:59:11 10° NNW 05:04:32 40° NE 05:09:53 10° ESE
CZ-4B R/B 3.9 05:00:46 10° NNE 05:06:03 58° ESE 05:11:23 10° S
COSMO-SKYMED 1 4.0 05:03:13 10° SW 05:06:18 19° W 05:07:59 16° WNW
NOSS 7 (H) 4.0 05:03:25 10° SW 05:06:36 64° NW 05:09:31 10° NE
NOSS 7 (E) 4.3 05:03:47 10° SW 05:07:23 86° SE 05:10:29 10° NE
USA 307 3.1 05:05:08 17° WNW 05:08:25 68° NNE 05:12:43 10° E
Cosmos 1937 Rocket 3.6 05:06:38 10° SW 05:11:40 52° WNW 05:16:46 10° NNE
CZ-4 R/B 4.5 05:11:20 10° NE 05:14:08 17° E 05:16:56 10° SE
Cosmos 1862 Rocket 4.3 05:10:03 10° N 05:14:28 56° ENE 05:18:50 10° SSE
USA 308 3.0 05:11:14 15° WNW 05:14:46 71° NNE 05:19:05 10° ESE
Cosmos 1833 Rocket 2.9 05:09:18 10° NNW 05:14:56 71° ENE 05:20:33 10° SE
CZ-4B R/B 4.0 05:12:15 10° N 05:16:05 28° WNW 05:19:50 10° WSW
MOS 1 Rocket 4.0 05:12:02 10° SSW 05:16:33 38° W 05:21:20 10° NNW
Cosmos 2154 Rocket 4.1 05:11:22 10° SSW 05:17:28 56° WNW 05:23:40 10° N
CZ-4C R/B 2.4 05:12:59 10° WSW 05:18:06 52° NW 05:24:19 10° NE
Meteor 1-27 Rocket 3.9 05:12:31 10° NNW 05:18:11 61° W 05:23:56 10° S
Cosmos 1805 Rocket 3.7 05:16:20 10° SSW 05:20:42 56° WNW 05:25:08 10° N
FALCON 9 DEB 2.9 05:18:33 10° W 05:21:45 70° NNW 05:24:59 10° ENE
Cosmos 494 Rocket 4.2 05:17:25 10° NNW 05:22:38 74° ENE 05:27:45 10° SSE
ATLAS 3B R/B 3.8 05:17:52 12° WNW 05:23:04 27° WSW 05:28:52 10° SSW
Cosmos 468 4.5 05:18:36 10° NNW 05:23:52 76° WSW 05:29:05 10° SSE
COSMOS 2406 3.3 05:19:13 10° NNW 05:25:00 84° WSW 05:30:46 10° SSE
Aureole 2 Rocket 2.3 05:23:04 10° SW 05:25:24 32° WNW 05:27:47 10° N
Cosmos 2150 Rocket 4.4 05:21:29 10° SSW 05:26:46 70° ESE 05:31:59 10° NNE
YAOGAN 6 2.9 05:23:47 10° N 05:27:06 40° WNW 05:30:23 10° SW
Cosmos 1048 Rocket 4.0 05:21:53 10° NNW 05:27:11 74° WSW 05:32:21 10° SSE
Cosmos 2298 Rocket 4.3 05:21:57 10° SSW 05:27:13 75° ESE 05:32:32 10° NNE
Cosmos 1666 Rocket 3.6 05:23:26 10° S 05:27:45 88° E 05:32:08 10° N
Cosmos 1862 4.3 05:24:57 10° SW 05:28:27 27° WNW 05:31:58 10° N
ALOS 4.1 05:27:58 10° NNW 05:29:29 11° NW 05:31:01 10° WNW
Genesis I 3.8 05:27:03 10° WSW 05:30:37 36° NW 05:34:14 10° NNE
DMSP B5D2-2 4.1 05:26:18 10° SSE 05:31:32 83° WSW 05:36:47 10° NNW
Cosmos 2341 Rocket 4.0 05:27:10 10° SSW 05:33:23 75° WNW 05:39:38 10° N
Cosmos 2278 Rocket 3.2 05:29:15 10° S 05:34:43 53° ESE 05:40:13 10° NE
FengYun 1-2 T 4.5 05:34:05 10° NNE 05:39:37 77° ESE 05:45:07 10° S
SL-8 Rocket 4.0 05:34:48 10° S 05:40:58 84° W 05:47:11 10° N
USA 305 3.0 05:39:15 10° WNW 05:43:35 89° SSW 05:47:54 10° ESE
Okean 1 3.6 05:39:34 10° N 05:43:38 75° E 05:47:41 10° SSE
BREEZE M DEB (TANK) 3.0 05:39:10 10° WSW 05:44:05 47° SSE 05:46:21 10° E
Cosmos 405 Rocket 3.9 05:41:37 10° WSW 05:44:26 20° WNW 05:47:17 10° NNW
NOAA 12 4.1 05:39:37 10° N 05:44:53 70° WNW 05:50:06 10° SSW
Cosmos 1727 Rocket 4.3 05:40:43 10° N 05:47:04 80° E 05:53:24 10° SSE
Meteor 1-20 Rocket 4.4 05:42:09 10° S 05:47:50 87° E 05:53:40 10° NNE
